| time (UTC) | temp F | wind direction | speed MPH | gust MPH | rain 1hr in | rain 24hr in | rain mn in | humidity % | barometer mb |
| 20260504214558 | 77 | 203 | 19.0 | 31.0 | 0.00 | 0.00 | 0.00 | 42 | 1010.7 |
| 20260504214056 | 77 | 207 | 22.0 | 31.0 | 0.00 | 0.00 | 0.00 | 41 | 1010.6 |
| 20260504213556 | 77 | 192 | 15.0 | 28.0 | 0.00 | 0.00 | 0.00 | 42 | 1010.7 |
| 20260504213054 | 77 | 211 | 17.0 | 28.0 | 0.00 | 0.00 | 0.00 | 43 | 1010.6 |
| 20260504212556 | 77 | 222 | 20.0 | 28.0 | 0.00 | 0.00 | 0.00 | 41 | 1010.7 |
| 20260504212058 | 77 | 245 | 21.0 | 32.0 | 0.00 | 0.00 | 0.00 | 42 | 1010.7 |
| 20260504211605 | 77 | 234 | 21.0 | 35.0 | 0.00 | 0.00 | 0.00 | 40 | 1010.7 |
| 20260504211056 | 77 | 219 | 24.0 | 35.0 | 0.00 | 0.00 | 0.00 | 41 | 1010.7 |
| 20260504210556 | 77 | 229 | 21.0 | 34.0 | 0.00 | 0.00 | 0.00 | 42 | 1010.8 |
| 20260504210058 | 77 | 229 | 19.0 | 32.0 | 0.00 | 0.00 | 0.00 | 41 | 1010.6 |
| 20260504205556 | 77 | 231 | 16.0 | 34.0 | 0.00 | 0.00 | 0.00 | 40 | 1010.8 |
| 20260504205056 | 78 | 183 | 18.0 | 34.0 | 0.00 | 0.00 | 0.00 | 39 | 1010.8 |
| 20260504204602 | 78 | 176 | 15.0 | 29.0 | 0.00 | 0.00 | 0.00 | 40 | 1010.9 |
| 20260504204056 | 78 | 236 | 19.0 | 29.0 | 0.00 | 0.00 | 0.00 | 40 | 1011.1 |
| 20260504203558 | 78 | 214 | 17.0 | 33.0 | 0.00 | 0.00 | 0.00 | 40 | 1011.1 |
| 20260504203106 | 77 | 167 | 16.0 | 33.0 | 0.00 | 0.00 | 0.00 | 41 | 1011.1 |
| 20260504202556 | 77 | 224 | 17.0 | 29.0 | 0.00 | 0.00 | 0.00 | 42 | 1011.2 |
| 20260504202056 | 77 | 206 | 21.0 | 29.0 | 0.00 | 0.00 | 0.00 | 39 | 1011.3 |
| 20260504201600 | 78 | 186 | 19.0 | 27.0 | 0.00 | 0.00 | 0.00 | 41 | 1011.6 |
| 20260504201059 | 78 | 232 | 17.0 | 27.0 | 0.00 | 0.00 | 0.00 | 41 | 1011.7 |
| 20260504200552 | 78 | 229 | 18.0 | 26.0 | 0.00 | 0.00 | 0.00 | 40 | 1011.6 |
| 20260504200056 | 77 | 230 | 15.0 | 27.0 | 0.00 | 0.00 | 0.00 | 41 | 1011.6 |
| 20260504195551 | 78 | 236 | 19.0 | 30.0 | 0.00 | 0.00 | 0.00 | 41 | 1011.9 |
| 20260504195052 | 78 | 224 | 19.0 | 33.0 | 0.00 | 0.00 | 0.00 | 42 | 1012.1 |
| 20260504194553 | 77 | 229 | 14.0 | 33.0 | 0.00 | 0.00 | 0.00 | 42 | 1012.0 |
| 20260504194052 | 77 | 226 | 20.0 | 33.0 | 0.00 | 0.00 | 0.00 | 41 | 1012.2 |
| 20260504193552 | 77 | 216 | 16.0 | 26.0 | 0.00 | 0.00 | 0.00 | 42 | 1012.2 |
| 20260504193054 | 78 | 164 | 18.0 | 27.0 | 0.00 | 0.00 | 0.00 | 41 | 1012.4 |
| 20260504192551 | 77 | 189 | 14.0 | 30.0 | 0.00 | 0.00 | 0.00 | 43 | 1012.4 |
| 20260504192054 | 77 | 209 | 20.0 | 30.0 | 0.00 | 0.00 | 0.00 | 41 | 1012.8 |
| 20260504191604 | 77 | 197 | 22.0 | 30.0 | 0.00 | 0.00 | 0.00 | 42 | 1012.7 |
| 20260504191051 | 77 | 207 | 14.0 | 30.0 | 0.00 | 0.00 | 0.00 | 42 | 1012.7 |
| 20260504190551 | 77 | 235 | 23.0 | 30.0 | 0.00 | 0.00 | 0.00 | 42 | 1012.8 |
| 20260504185552 | 76 | 231 | 11.0 | 25.0 | 0.00 | 0.00 | 0.00 | 42 | 1012.8 |
| 20260504185052 | 77 | 226 | 16.0 | 29.0 | 0.00 | 0.00 | 0.00 | 45 | 1012.9 |
| 20260504184555 | 77 | 210 | 18.0 | 29.0 | 0.00 | 0.00 | 0.00 | 41 | 1012.9 |
| 20260504184052 | 77 | 236 | 17.0 | 28.0 | 0.00 | 0.00 | 0.00 | 42 | 1012.9 |
| 20260504183552 | 77 | 221 | 15.0 | 27.0 | 0.00 | 0.00 | 0.00 | 42 | 1013.0 |
| 20260504183059 | 77 | 223 | 17.0 | 27.0 | 0.00 | 0.00 | 0.00 | 42 | 1013.1 |
| 20260504182554 | 76 | 253 | 14.0 | 26.0 | 0.00 | 0.00 | 0.00 | 43 | 1013.1 |
| 20260504182054 | 76 | 231 | 12.0 | 25.0 | 0.00 | 0.00 | 0.00 | 43 | 1013.3 |
| 20260504181558 | 76 | 226 | 11.0 | 25.0 | 0.00 | 0.00 | 0.00 | 44 | 1013.3 |
| 20260504181052 | 76 | 219 | 14.0 | 28.0 | 0.00 | 0.00 | 0.00 | 42 | 1013.4 |
| 20260504180552 | 76 | 243 | 18.0 | 28.0 | 0.00 | 0.00 | 0.00 | 44 | 1013.6 |
| 20260504175555 | 76 | 238 | 19.0 | 30.0 | 0.00 | 0.00 | 0.00 | 43 | 1013.6 |
| 20260504175052 | 76 | 245 | 15.0 | 28.0 | 0.00 | 0.00 | 0.00 | 43 | 1013.5 |
| 20260504174552 | 76 | 211 | 19.0 | 30.0 | 0.00 | 0.00 | 0.00 | 44 | 1013.6 |
| 20260504174052 | 76 | 237 | 19.0 | 30.0 | 0.00 | 0.00 | 0.00 | 42 | 1013.6 |
| 20260504173553 | 76 | 226 | 20.0 | 30.0 | 0.00 | 0.00 | 0.00 | 42 | 1013.7 |
| 20260504173052 | 76 | 237 | 20.0 | 30.0 | 0.00 | 0.00 | 0.00 | 43 | 1013.7 |
| 20260504172552 | 76 | 212 | 22.0 | 30.0 | 0.00 | 0.00 | 0.00 | 40 | 1013.8 |
| 20260504172053 | 76 | 203 | 16.0 | 30.0 | 0.00 | 0.00 | 0.00 | 42 | 1013.8 |
| 20260504171551 | 76 | 239 | 17.0 | 26.0 | 0.00 | 0.00 | 0.00 | 43 | 1013.8 |
| 20260504171055 | 76 | 210 | 19.0 | 27.0 | 0.00 | 0.00 | 0.00 | 44 | 1013.8 |
| 20260504170555 | 76 | 211 | 17.0 | 27.0 | 0.00 | 0.00 | 0.00 | 42 | 1014.0 |
| 20260504151053 | 72 | 252 | 17.0 | 24.0 | 0.00 | 0.00 | 0.00 | 57 | 1014.9 |
| 20260504150553 | 72 | 235 | 11.0 | 19.0 | 0.00 | 0.00 | 0.00 | 58 | 1014.9 |
| 20260504141056 | 67 | 240 | 14.0 | 21.0 | 0.00 | 0.00 | 0.00 | 67 | 1015.1 |
| 20260504140556 | 67 | 230 | 15.0 | 21.0 | 0.00 | 0.00 | 0.00 | 67 | 1015.1 |
| 20260504130552 | 63 | 230 | 10.0 | 14.0 | 0.00 | 0.00 | 0.00 | 76 | 1014.6 |
| 20260504110554 | 57 | 0 | 0.0 | 0.0 | 0.00 | 0.00 | 0.00 | 83 | 1013.8 |
| 20260504100558 | 57 | 0 | 0.0 | 6.0 | 0.00 | 0.00 | 0.00 | 83 | 1013.9 |
| 20260504081555 | 59 | 0 | 0.0 | 0.0 | 0.00 | 0.00 | 0.00 | 78 | 1014.3 |
| 20260504081055 | 60 | 0 | 0.0 | 0.0 | 0.00 | 0.00 | 0.00 | 78 | 1014.4 |
| 20260504080557 | 60 | 0 | 0.0 | 0.0 | 0.00 | 0.00 | 0.00 | 77 | 1014.5 |
| 20260504050554 | 62 | 170 | 4.0 | 6.0 | 0.00 | 0.00 | 0.00 | 70 | 1015.8 |
| 20260504050109 | 62 | 161 | 4.0 | 7.0 | 0.00 | 0.00 | 0.00 | 70 | 1015.7 |
| 20260504045556 | 62 | 0 | 0.0 | 7.0 | 0.00 | 0.00 | 0.00 | 70 | 1015.9 |
| 20260504045055 | 62 | 0 | 3.0 | 7.0 | 0.00 | 0.00 | 0.00 | 69 | 1015.9 |
| 20260504044600 | 63 | 161 | 1.0 | 6.0 | 0.00 | 0.00 | 0.00 | 69 | 1015.9 |
| 20260504044053 | 63 | 173 | 3.0 | 7.0 | 0.00 | 0.00 | 0.00 | 68 | 1015.9 |
| 20260504043552 | 63 | 189 | 0.0 | 8.0 | 0.00 | 0.00 | 0.00 | 68 | 1015.9 |
| 20260504043059 | 63 | 0 | 6.0 | 8.0 | 0.00 | 0.00 | 0.00 | 67 | 1016.0 |
| 20260504042552 | 63 | 179 | 2.0 | 7.0 | 0.00 | 0.00 | 0.00 | 67 | 1015.9 |
| 20260504042052 | 63 | 0 | 0.0 | 0.0 | 0.00 | 0.00 | 0.00 | 66 | 1015.9 |
| 20260504041600 | 63 | 0 | 0.0 | 0.0 | 0.00 | 0.00 | 0.00 | 66 | 1015.9 |
| 20260504041053 | 63 | 0 | 0.0 | 0.0 | 0.00 | 0.00 | 0.00 | 65 | 1015.9 |
| 20260504040555 | 63 | 0 | 0.0 | 0.0 | 0.00 | 0.00 | 0.00 | 65 | 1015.9 |
| 20260504035556 | 63 | 0 | 0.0 | 0.0 | 0.00 | 0.00 | 0.00 | 64 | 1015.9 |
| 20260504035055 | 63 | 0 | 0.0 | 7.0 | 0.00 | 0.00 | 0.00 | 64 | 1015.8 |
| 20260504034557 | 64 | 0 | 1.0 | 7.0 | 0.00 | 0.00 | 0.00 | 63 | 1015.8 |
| 20260504034057 | 64 | 177 | 5.0 | 7.0 | 0.00 | 0.00 | 0.00 | 62 | 1015.9 |
| 20260504033555 | 64 | 0 | 0.0 | 7.0 | 0.00 | 0.00 | 0.00 | 62 | 1015.9 |
| 20260504033053 | 64 | 0 | 4.0 | 7.0 | 0.00 | 0.00 | 0.00 | 61 | 1015.9 |
| 20260504032555 | 64 | 186 | 0.0 | 0.0 | 0.00 | 0.00 | 0.00 | 61 | 1015.9 |
| 20260504032058 | 64 | 0 | 0.0 | 0.0 | 0.00 | 0.00 | 0.00 | 61 | 1015.8 |
| 20260504031555 | 64 | 0 | 0.0 | 0.0 | 0.00 | 0.00 | 0.00 | 60 | 1015.9 |
| 20260504031052 | 65 | 0 | 0.0 | 0.0 | 0.00 | 0.00 | 0.00 | 60 | 1016.0 |
| 20260504030555 | 65 | 0 | 0.0 | 5.0 | 0.00 | 0.00 | 0.00 | 59 | 1015.9 |
| 20260504030055 | 65 | 0 | 0.0 | 5.0 | 0.00 | 0.00 | 0.00 | 59 | 1015.9 |
| 20260504025555 | 65 | 0 | 0.0 | 5.0 | 0.00 | 0.00 | 0.00 | 59 | 1015.9 |
| 20260504025052 | 65 | 0 | 0.0 | 0.0 | 0.00 | 0.00 | 0.00 | 58 | 1015.8 |
| 20260504024609 | 65 | 0 | 0.0 | 0.0 | 0.00 | 0.00 | 0.00 | 58 | 1015.9 |
| 20260504024053 | 65 | 0 | 0.0 | 0.0 | 0.00 | 0.00 | 0.00 | 58 | 1015.9 |
| 20260504023555 | 65 | 0 | 0.0 | 4.0 | 0.00 | 0.00 | 0.00 | 58 | 1015.9 |
| 20260504023054 | 66 | 0 | 0.0 | 4.0 | 0.00 | 0.00 | 0.00 | 57 | 1015.8 |
| 20260504022557 | 66 | 0 | 0.0 | 3.0 | 0.00 | 0.00 | 0.00 | 55 | 1015.7 |
| 20260504022055 | 66 | 0 | 0.0 | 6.0 | 0.00 | 0.00 | 0.00 | 55 | 1015.7 |
| 20260504021555 | 67 | 0 | 0.0 | 6.0 | 0.00 | 0.00 | 0.00 | 54 | 1015.6 |
| 20260504021055 | 67 | 0 | 1.0 | 6.0 | 0.00 | 0.00 | 0.00 | 53 | 1015.6 |
| 20260504020557 | 67 | 0 | 0.0 | 5.0 | 0.00 | 0.00 | 0.00 | 52 | 1015.6 |
| 20260504020057 | 68 | 0 | 0.0 | 5.0 | 0.00 | 0.00 | 0.00 | 52 | 1015.5 |
| 20260504015556 | 68 | 0 | 1.0 | 5.0 | 0.00 | 0.00 | 0.00 | 51 | 1015.5 |
| 20260504015056 | 68 | 0 | 0.0 | 4.0 | 0.00 | 0.00 | 0.00 | 50 | 1015.4 |
| 20260504014605 | 68 | 0 | 0.0 | 4.0 | 0.00 | 0.00 | 0.00 | 50 | 1015.5 |
| 20260504014055 | 69 | 0 | 0.0 | 4.0 | 0.00 | 0.00 | 0.00 | 49 | 1015.4 |
| 20260504013555 | 69 | 0 | 1.0 | 4.0 | 0.00 | 0.00 | 0.00 | 49 | 1015.4 |
| 20260504013058 | 69 | 0 | 0.0 | 0.0 | 0.00 | 0.00 | 0.00 | 49 | 1015.4 |
| 20260504012555 | 69 | 0 | 0.0 | 0.0 | 0.00 | 0.00 | 0.00 | 48 | 1015.4 |
| 20260504012054 | 70 | 0 | 0.0 | 0.0 | 0.00 | 0.00 | 0.00 | 48 | 1015.4 |
| 20260504011631 | 71 | 0 | 0.0 | 0.0 | 0.00 | 0.00 | 0.00 | 47 | 1015.4 |
| 20260504011054 | 71 | 0 | 0.0 | 0.0 | 0.00 | 0.00 | 0.00 | 46 | 1015.3 |
| 20260504010552 | 72 | 0 | 0.0 | 0.0 | 0.00 | 0.00 | 0.00 | 44 | 1015.2 |
| 20260504010104 | 72 | 0 | 0.0 | 0.0 | 0.00 | 0.00 | 0.00 | 45 | 1015.2 |
| 20260504005553 | 72 | 0 | 0.0 | 0.0 | 0.00 | 0.00 | 0.00 | 45 | 1015.0 |
| 20260504005057 | 72 | 0 | 0.0 | 0.0 | 0.00 | 0.00 | 0.00 | 46 | 1015.1 |
| 20260504004553 | 73 | 0 | 0.0 | 4.0 | 0.00 | 0.00 | 0.00 | 44 | 1015.1 |
| 20260504004055 | 73 | 0 | 0.0 | 4.0 | 0.00 | 0.00 | 0.00 | 43 | 1015.0 |
| 20260504003556 | 74 | 210 | 0.0 | 0.0 | 0.00 | 0.00 | 0.00 | 42 | 1015.1 |
| 20260504003056 | 74 | 0 | 0.0 | 0.0 | 0.00 | 0.00 | 0.00 | 41 | 1015.0 |
| 20260504002555 | 74 | 0 | 0.0 | 0.0 | 0.00 | 0.00 | 0.00 | 40 | 1014.8 |
| 20260504002055 | 74 | 0 | 0.0 | 0.0 | 0.00 | 0.00 | 0.00 | 40 | 1014.8 |
| 20260504001556 | 75 | 0 | 0.0 | 7.0 | 0.00 | 0.00 | 0.00 | 39 | 1014.9 |
| 20260504001052 | 75 | 0 | 0.0 | 7.0 | 0.00 | 0.00 | 0.00 | 38 | 1015.0 |
| 20260504000557 | 75 | 0 | 0.0 | 10.0 | 0.00 | 0.00 | 0.00 | 38 | 1015.0 |
| 20260504000137 | 75 | 0 | 1.0 | 10.0 | 0.00 | 0.00 | 0.00 | 38 | 1015.1 |
| 20260503235554 | 75 | 218 | 1.0 | 15.0 | 0.00 | 0.00 | 0.00 | 39 | 1015.1 |
| 20260503235053 | 75 | 221 | 5.0 | 15.0 | 0.00 | 0.00 | 0.00 | 38 | 1015.2 |
| 20260503234601 | 76 | 214 | 11.0 | 15.0 | 0.00 | 0.00 | 0.00 | 37 | 1015.2 |
| 20260503234058 | 76 | 198 | 5.0 | 17.0 | 0.00 | 0.00 | 0.00 | 38 | 1015.3 |
| 20260503233553 | 76 | 0 | 2.0 | 17.0 | 0.00 | 0.00 | 0.00 | 39 | 1015.3 |
| 20260503233054 | 76 | 263 | 9.0 | 17.0 | 0.00 | 0.00 | 0.00 | 38 | 1015.3 |
| 20260503232552 | 76 | 0 | 0.0 | 10.0 | 0.00 | 0.00 | 0.00 | 39 | 1015.5 |
| 20260503232055 | 76 | 0 | 1.0 | 11.0 | 0.00 | 0.00 | 0.00 | 38 | 1015.5 |
| 20260503231556 | 76 | 254 | 1.0 | 11.0 | 0.00 | 0.00 | 0.00 | 36 | 1015.6 |
| 20260503231052 | 76 | 250 | 0.0 | 11.0 | 0.00 | 0.00 | 0.00 | 38 | 1015.6 |
| 20260503230552 | 76 | 0 | 3.0 | 11.0 | 0.00 | 0.00 | 0.00 | 35 | 1015.6 |
| 20260503230056 | 76 | 0 | 3.0 | 11.0 | 0.00 | 0.00 | 0.00 | 36 | 1015.7 |
| 20260503225553 | 76 | 210 | 5.0 | 11.0 | 0.00 | 0.00 | 0.00 | 35 | 1015.6 |
| 20260503225052 | 76 | 0 | 5.0 | 11.0 | 0.00 | 0.00 | 0.00 | 36 | 1015.8 |
| 20260503224554 | 77 | 0 | 0.0 | 9.0 | 0.00 | 0.00 | 0.00 | 36 | 1015.8 |
| 20260503224055 | 76 | 0 | 1.0 | 12.0 | 0.00 | 0.00 | 0.00 | 36 | 1015.7 |
| 20260503223553 | 77 | 0 | 0.0 | 12.0 | 0.00 | 0.00 | 0.00 | 35 | 1015.8 |
| 20260503223058 | 77 | 0 | 3.0 | 12.0 | 0.00 | 0.00 | 0.00 | 34 | 1015.9 |
| 20260503222552 | 76 | 0 | 0.0 | 10.0 | 0.00 | 0.00 | 0.00 | 36 | 1015.9 |
| 20260503222052 | 76 | 0 | 1.0 | 12.0 | 0.00 | 0.00 | 0.00 | 37 | 1016.1 |
| 20260503221557 | 76 | 0 | 0.0 | 16.0 | 0.00 | 0.00 | 0.00 | 39 | 1016.1 |
| 20260503221055 | 77 | 236 | 8.0 | 16.0 | 0.00 | 0.00 | 0.00 | 37 | 1016.2 |
| 20260503220552 | 77 | 0 | 0.0 | 11.0 | 0.00 | 0.00 | 0.00 | 37 | 1016.1 |
| 20260503220057 | 76 | 0 | 2.0 | 16.0 | 0.00 | 0.00 | 0.00 | 37 | 1016.1 |
| 20260503215551 | 76 | 0 | 1.0 | 18.0 | 0.00 | 0.00 | 0.00 | 39 | 1016.3 |
| 20260503215051 | 76 | 250 | 11.0 | 18.0 | 0.00 | 0.00 | 0.00 | 37 | 1016.4 |